Date String (YYYY-MM-DD hh:mm:ss) UTC,Instrument flags,Ambient pressure (hPa),Sample flow (lpm),Bypass flow (lpm),Sample temperature (°C),Ambient temperature (°C),ASC tube jacket temperature (°C),LED temperature (°C),Box temperature (°C),Sample RH (%),Span deviation,Mass concentration (μg/m³),Mass concentration (μg/m³),Mass concentration (μg/m³)
DateTimeUTC,F1_M11,P_M11,Q1_M11,Q2_M11,T1_M11,T2_M11,T3_M11,T4_M11,T5_M11,U1_M11,ZSPAN_M11,X2_M11,X0_M11,X1_M11
2023-05-16 01:00:00,,0838.8,5.00,0.00,28.7,27.1,00.0,37.2,30.3,28.1,0000.0,0005.71,0009.05,0005.32
2023-05-16 01:01:00,,0838.9,4.99,0.00,28.7,27.1,00.0,37.2,30.3,28.0,0000.0,0005.66,0008.64,0005.29
2023-05-16 01:02:00,,0838.9,4.99,0.00,28.7,27.1,00.0,37.2,30.3,28.1,0000.0,0005.66,0008.65,0005.27
2023-05-16 01:03:00,,0838.9,5.00,0.00,28.7,27.2,00.0,37.2,30.3,28.0,0000.0,0005.67,0008.48,0005.25
2023-05-16 01:04:00,,0838.9,5.00,0.00,28.8,27.2,00.0,37.2,30.3,27.8,0000.0,0005.66,0008.48,0005.25
2023-05-16 01:05:00,,0838.9,5.01,0.00,28.7,27.2,00.0,37.2,30.3,27.6,0000.0,0005.64,0008.52,0005.24
2023-05-16 01:06:00,,0838.8,5.01,0.00,28.7,27.2,00.0,37.2,30.3,27.8,0000.0,0005.62,0008.59,0005.23
2023-05-16 01:07:00,,0838.9,5.00,0.00,28.8,27.2,00.0,37.2,30.3,28.2,0000.0,0005.60,0008.52,0005.21
2023-05-16 01:08:00,,0838.9,4.99,0.00,28.8,27.2,00.0,37.2,30.3,28.4,0000.0,0005.55,0008.41,0005.19
2023-05-16 01:09:00,,0838.9,5.00,0.00,28.8,27.2,00.0,37.2,30.4,28.3,0000.0,0005.52,0008.37,0005.18
2023-05-16 01:10:00,,0838.8,4.99,0.00,28.8,27.2,00.0,37.2,30.4,28.0,0000.0,0005.53,0008.40,0005.17
2023-05-16 01:11:00,,0838.8,5.00,0.00,28.8,27.2,00.0,37.2,30.4,28.0,0000.0,0005.53,0008.39,0005.16
2023-05-16 01:12:00,,0838.8,5.00,0.00,28.8,27.3,00.0,37.2,30.4,28.0,0000.0,0005.53,0008.40,0005.17
2023-05-16 01:13:00,,0838.8,5.01,0.00,28.8,27.3,00.0,37.2,30.4,28.3,0000.0,0005.49,0008.34,0005.17
2023-05-16 01:14:00,,0838.8,5.00,0.00,28.8,27.3,00.0,37.2,30.4,28.3,0000.0,0005.53,0008.48,0005.19
2023-05-16 01:15:00,,0838.8,5.00,0.00,28.8,27.3,00.0,37.2,30.4,28.2,0000.0,0005.58,0008.82,0005.21
2023-05-16 01:16:00,,0838.8,5.00,0.00,28.8,27.3,00.0,37.2,30.4,28.2,0000.0,0005.59,0008.76,0005.22
2023-05-16 01:17:00,,0838.7,5.00,0.00,28.8,27.3,00.0,37.2,30.4,28.2,0000.0,0005.60,0009.14,0005.25
2023-05-16 01:18:00,,0838.8,5.00,0.00,28.8,27.3,00.0,37.2,30.4,28.2,0000.0,0005.64,0010.00,0005.27
2023-05-16 01:19:00,,0838.8,5.00,0.00,28.8,27.3,00.0,37.2,30.4,28.3,0000.0,0005.69,0010.16,0005.31
2023-05-16 01:20:00,,0838.8,5.00,0.00,28.8,27.3,00.0,37.2,30.4,28.2,0000.0,0005.75,0010.25,0005.35
2023-05-16 01:21:00,,0838.8,5.00,0.00,28.9,27.4,00.0,37.2,30.5,28.0,0000.0,0005.79,0010.28,0005.39
2023-05-16 01:22:00,,0838.8,5.01,0.00,28.9,27.4,00.0,37.2,30.5,28.1,0000.0,0005.83,0010.36,0005.43
2023-05-16 01:23:00,,0838.8,5.00,0.00,28.9,27.4,00.0,37.2,30.5,28.1,0000.0,0005.87,0010.74,0005.47
2023-05-16 01:24:00,,0838.8,5.01,0.00,28.9,27.5,00.0,37.2,30.5,28.2,-000.1,0005.92,0010.95,0005.49
2023-05-16 01:25:00,,0838.8,4.98,0.00,28.9,27.5,00.0,37.3,30.5,28.1,-000.2,0005.93,0010.90,0005.51
2023-05-16 01:26:00,,0838.9,5.00,0.00,28.9,27.6,00.0,37.3,30.6,28.0,0000.0,0005.92,0010.59,0005.53
2023-05-16 01:27:00,,0838.9,5.00,0.00,29.0,27.6,00.0,37.3,30.6,28.0,0000.0,0005.93,0011.15,0005.55
2023-05-16 01:28:00,,0838.9,5.00,0.00,29.0,27.6,00.0,37.3,30.6,27.9,0000.0,0005.94,0011.52,0005.58
2023-05-16 01:29:00,,0838.9,5.00,0.00,29.0,27.7,00.0,37.3,30.6,27.8,0000.0,0005.94,0011.76,0005.60
2023-05-16 01:30:00,,0838.9,5.00,0.00,29.0,27.7,00.0,37.3,30.6,27.6,0000.0,0005.94,0011.66,0005.61
2023-05-16 01:31:00,,0838.9,5.01,0.00,29.0,27.7,00.0,37.3,30.7,27.5,0000.0,0005.94,0011.63,0005.63
2023-05-16 01:32:00,,0838.9,5.00,0.00,29.1,27.8,00.0,37.3,30.7,27.6,-000.2,0005.95,0011.65,0005.63
2023-05-16 01:33:00,,0838.9,4.99,0.00,29.1,27.8,00.0,37.4,30.7,27.6,0000.0,0005.93,0011.53,0005.63
2023-05-16 01:34:00,,0839.0,4.99,0.00,29.1,27.8,00.0,37.4,30.7,27.6,0000.0,0005.93,0011.14,0005.63
2023-05-16 01:35:00,,0839.0,4.99,0.00,29.1,27.8,00.0,37.4,30.7,27.5,-000.2,0005.94,0010.96,0005.66
2023-05-16 01:36:00,,0839.1,5.00,0.00,29.1,27.8,00.0,37.4,30.8,27.4,-002.0,0005.94,0011.59,0005.69
2023-05-16 01:37:00,,0839.1,5.00,0.00,29.1,27.9,00.0,37.4,30.8,27.4,-001.7,0005.97,0011.81,0005.71
2023-05-16 01:38:00,,0839.1,5.01,0.00,29.2,27.9,00.0,37.4,30.8,27.3,0000.0,0006.01,0011.29,0005.73
2023-05-16 01:39:00,,0839.1,5.00,0.00,29.2,27.9,00.0,37.5,30.8,27.3,-000.8,0006.06,0010.63,0005.75
2023-05-16 01:40:00,,0839.1,5.00,0.00,29.2,27.9,00.0,37.5,30.8,27.2,0000.0,0006.08,0009.95,0005.77
2023-05-16 01:41:00,,0839.1,5.00,0.00,29.2,27.9,00.0,37.5,30.8,27.1,-000.9,0006.12,0010.08,0005.78
2023-05-16 01:42:00,,0839.0,4.99,0.00,29.2,27.9,00.0,37.5,30.8,27.1,-000.8,0006.16,0010.48,0005.79
2023-05-16 01:43:00,,0838.9,5.00,0.00,29.3,27.9,00.0,37.5,30.9,27.0,-000.3,0006.18,0010.47,0005.80
2023-05-16 01:44:00,,0838.9,4.99,0.00,29.3,27.9,00.0,37.5,30.9,26.9,-000.3,0006.19,0010.77,0005.81
2023-05-16 01:45:00,,0838.9,4.99,0.00,29.3,27.9,00.0,37.5,30.9,26.9,-000.4,0006.24,0010.87,0005.83
2023-05-16 01:46:00,,0838.9,5.00,0.00,29.3,28.0,00.0,37.6,30.9,26.9,0000.1,0006.24,0010.96,0005.85
2023-05-16 01:47:00,,0838.9,5.00,0.00,29.3,28.0,00.0,37.6,30.9,26.8,0000.0,0006.27,0010.62,0005.85
2023-05-16 01:48:00,,0838.9,5.00,0.00,29.3,28.0,00.0,37.6,30.9,26.7,0000.5,0006.27,0010.27,0005.85
2023-05-16 01:49:00,,0838.8,5.01,0.00,29.3,28.0,00.0,37.6,30.9,26.6,0000.6,0006.26,0010.20,0005.87
2023-05-16 01:50:00,,0838.8,5.01,0.00,29.4,28.0,00.0,37.6,31.0,26.6,0000.6,0006.24,0010.11,0005.86
2023-05-16 01:51:00,,0838.8,4.99,0.00,29.4,28.0,00.0,37.6,31.0,26.6,0000.8,0006.25,0009.73,0005.87
2023-05-16 01:52:00,,0838.8,5.01,0.00,29.4,28.0,00.0,37.6,31.0,26.6,0001.0,0006.27,0009.99,0005.88
2023-05-16 01:53:00,,0838.7,5.01,0.00,29.4,28.0,00.0,37.7,31.0,26.5,0000.8,0006.24,0009.75,0005.89
2023-05-16 01:54:00,,0838.6,4.99,0.00,29.4,28.0,00.0,37.7,31.0,26.4,0000.6,0006.20,0009.58,0005.88
2023-05-16 01:55:00,,0838.6,5.00,0.00,29.4,28.1,00.0,37.7,31.0,26.3,0000.6,0006.19,0009.44,0005.87
2023-05-16 01:56:00,,0838.6,5.00,0.00,29.4,28.1,00.0,37.7,31.0,26.1,0000.8,0006.17,0009.32,0005.86
2023-05-16 01:57:00,,0838.6,5.00,0.00,29.4,28.1,00.0,37.7,31.0,26.1,0000.7,0006.16,0009.31,0005.84
2023-05-16 01:58:00,,0838.6,5.00,0.00,29.5,28.1,00.0,37.7,31.0,26.1,0001.1,0006.13,0009.17,0005.84
2023-05-16 01:59:00,,0838.6,5.01,0.00,29.5,28.1,00.0,37.7,31.1,26.1,0001.1,0006.11,0009.38,0005.83
